Torna al catalogo

CZ-6A DEB

AttivoPO
NORAD 60656·DEBRIS·🇨🇳 China

Lanciato Aug 6, 2024 da Taiyuan Satellite Launch Center

Loading…

Prossimi Passaggi (prossime 24 ore)

TLE

AggiornatoSource: Space-Track

Epoca: Sep 14, 2026, 00:25 UTC

1 60656U 24140BH  26257.01752395  .00034149  00000-0  14541-2 0  9996
2 60656  89.1420 269.2603 0092257 179.1141 181.0286 15.18968410113134

Traccia CZ-6A DEB in tempo reale con AllMySat

Download on the App Store